This is the latest recevied weather packets stored in our database for station/object K0QED. If no packets are shown the sender has not sent any weather packets the latest 10 day(s).
| Time | Temp. | Humidity | Pressure | Rain* | Wind** | Luminosity | Snow |
|---|---|---|---|---|---|---|---|
| 1777763537 | 16.11° C | 27% | 1022.9 hPa | 0 mm | - | 323 W/m² | - |
| 1777763236 | 16.11° C | 26% | 1022.7 hPa | 0 mm | - | 336 W/m² | - |
| 1777762933 | 15.56° C | 26% | 1022.5 hPa | 0 mm | - | 361 W/m² | - |
| 1777762629 | 16.11° C | 28% | 1022.7 hPa | 0 mm | - | 364 W/m² | - |
| 1777762326 | 16.11° C | 26% | 1022.9 hPa | 0 mm | - | 395 W/m² | - |
| 1777762022 | 16.67° C | 25% | 1022.7 hPa | 0 mm | - | 413 W/m² | - |
| 1777761719 | 16.11° C | 27% | 1022.7 hPa | 0 mm | - | 422 W/m² | - |
| 1777761417 | 16.11° C | 27% | 1022.9 hPa | 0 mm | - | 424 W/m² | - |
| 1777761115 | 15.56° C | 27% | 1022.7 hPa | 0 mm | - | 445 W/m² | - |
| 1777760812 | 16.11° C | 29% | 1022.6 hPa | 0 mm | - | 447 W/m² | - |
| 1777760509 | 16.67° C | 24% | 1023 hPa | 0 mm | - | 445 W/m² | - |
| 1777760204 | 16.11° C | 27% | 1023 hPa | 0 mm | - | 443 W/m² | - |
| 1777759902 | 16.11° C | 26% | 1023 hPa | 0 mm | - | 473 W/m² | - |
| 1777759598 | 16.11° C | 26% | 1023 hPa | 0 mm | - | 476 W/m² | - |
| 1777759294 | 16.67° C | 26% | 1023.1 hPa | 0 mm | - | 488 W/m² | - |
| 1777758991 | 16.11° C | 25% | 1023.5 hPa | 0 mm | - | 494 W/m² | - |
| 1777758688 | 15.56° C | 26% | 1023.4 hPa | 0 mm | - | 508 W/m² | - |
| 1777758385 | 15.56° C | 27% | 1023.2 hPa | 0 mm | - | 517 W/m² | - |
| 1777758082 | 16.67° C | 26% | 1023.4 hPa | 0 mm | - | 537 W/m² | - |
| 1777757780 | 15.56° C | 26% | 1023.5 hPa | 0 mm | - | 528 W/m² | - |
| 1777757477 | 15.56° C | 26% | 1023.5 hPa | 0 mm | - | 532 W/m² | - |
| 1777757176 | 15.56° C | 25% | 1023.9 hPa | 0 mm | - | 585 W/m² | - |
| 1777756874 | 16.67° C | 26% | 1023.7 hPa | 0 mm | - | 600 W/m² | - |
| 1777756569 | 16.11° C | 27% | 1023.7 hPa | 0 mm | - | 600 W/m² | - |
| 1777756266 | 15.56° C | 27% | 1024 hPa | 0 mm | - | 609 W/m² | - |
* Rain latest hour (hover to see other rain measurements)
** Current wind speed in m/s (hover to see current wind gust speed)